This demonstration page uses our WeatherBlox Daily Observations layout. Learn more.

Left ArrowRight Arrow

Hourly Observations for May 1, 2015

Temp ( °F °C ) Dew Point ( °F °C ) Humidity (%) Winds ( mph kmh ) Pressure ( in mb ) Visibility ( mi km ) Precip ( " mm )
12:16 am 00:16 Cloudy 46 8 30 -1 53 53 N 7 11 30.06 1018 10 16.0934 N/A
12:36 am 00:36 Mostly Cloudy 46 8 30 -1 53 53 NNW 8 13 30.06 1018 10 16.0934 N/A
12:56 am 00:56 Partly Cloudy 46 8 30 -1 53 53 NNW 6 9 30.09 1019 10 16.0934 N/A
1:16 am 01:16 Partly Cloudy 45 7 30 -1 57 57 NNW 7 11 30.09 1019 10 16.0934 N/A
1:36 am 01:36 Clear 45 7 30 -1 57 57 NNW 7 11 30.09 1019 10 16.0934 N/A
1:56 am 01:56 Clear 45 7 30 -1 57 57 NNW 7 11 30.09 1019 10 16.0934 N/A
2:16 am 02:16 Clear 43 6 30 -1 61 61 NNW 8 13 30.09 1019 10 16.0934 N/A
2:36 am 02:36 Clear 43 6 30 -1 61 61 NW 7 11 30.09 1019 10 16.0934 N/A
2:56 am 02:56 Clear 41 5 28 -2 61 61 NNW 7 11 30.09 1019 10 16.0934 N/A
3:16 am 03:16 Clear 43 6 28 -2 57 57 NNW 8 13 30.06 1018 10 16.0934 N/A
3:36 am 03:36 Clear 41 5 28 -2 61 61 NNW 9 15 30.06 1018 10 16.0934 N/A
3:56 am 03:56 Clear 41 5 28 -2 61 61 NNW 8 13 30.06 1018 10 16.0934 N/A
4:16 am 04:16 Clear 39 4 28 -2 65 65 N 7 11 30.06 1018 10 16.0934 N/A
4:36 am 04:36 Clear 39 4 28 -2 65 65 N 6 9 30.09 1019 10 16.0934 N/A
4:56 am 04:56 Clear 39 4 28 -2 65 65 N 6 9 30.09 1019 10 16.0934 N/A
5:15 am 05:15 Clear 39 4 28 -2 65 65 N 6 9 30.09 1019 10 16.0934 N/A
5:36 am 05:36 Clear 39 4 28 -2 65 65 N 6 9 30.09 1019 10 16.0934 N/A
5:56 am 05:56 Clear 37 3 28 -2 70 70 N 7 11 30.12 1020 10 16.0934 N/A
6:15 am 06:15 Clear 37 3 28 -2 70 70 NNW 5 7 30.12 1020 10 16.0934 N/A
6:36 am 06:36 Clear 37 3 28 -2 70 70 NW 7 11 30.12 1020 10 16.0934 N/A
6:56 am 06:56 Sunny 39 4 32 0 75 75 N 7 11 30.12 1020 10 16.0934 N/A
7:16 am 07:16 Sunny 39 4 32 0 75 75 N 9 15 30.12 1020 10 16.0934 N/A
7:36 am 07:36 Sunny 41 5 32 0 70 70 N 6 9 30.12 1020 10 16.0934 N/A
7:56 am 07:56 Sunny 43 6 32 0 66 66 N 8 13 30.12 1020 10 16.0934 N/A
8:16 am 08:16 Sunny 43 6 32 0 66 66 N 12 19 30.15 1021 10 16.0934 N/A
8:36 am 08:36 Sunny 45 7 32 0 61 61 N 8 13 30.15 1021 10 16.0934 N/A
8:55 am 08:55 Sunny 46 8 32 0 57 57 N 8 13 30.15 1021 10 16.0934 N/A
9:16 am 09:16 Sunny 48 9 32 0 54 54 N 8 13 30.15 1021 10 16.0934 N/A
9:35 am 09:35 Sunny 52 11 34 1 50 50 N 7 11 30.15 1021 10 16.0934 N/A
9:56 am 09:56 Sunny 54 12 34 1 47 47 N 9 15 30.15 1021 10 16.0934 N/A
10:16 am 10:16 Sunny 55 13 34 1 44 44 N 10 17 30.12 1020 10 16.0934 N/A
10:35 am 10:35 Sunny 57 14 34 1 41 41 N 9 15 30.12 1020 10 16.0934 N/A
10:56 am 10:56 Sunny 59 15 32 0 36 36 N 8 13 30.12 1020 10 16.0934 N/A
11:16 am 11:16 Sunny 59 15 32 0 36 36 NNE 9 15 30.12 1020 10 16.0934 N/A
11:36 am 11:36 Sunny 61 16 32 0 34 34 NNE 7 11 30.12 1020 10 16.0934 N/A
11:56 am 11:56 Sunny 63 17 32 0 32 32 N 7 11 30.12 1020 10 16.0934 N/A
12:16 pm 12:16 Sunny 64 18 32 0 30 30 N 9 15 30.12 1020 10 16.0934 N/A
12:36 pm 12:36 Sunny 64 18 32 0 30 30 NNE 12 19 30.12 1020 10 16.0934 N/A
12:56 pm 12:56 Sunny 66 19 32 0 28 28 NW 7 11 30.12 1020 10 16.0934 N/A
1:16 pm 13:16 Sunny 66 19 32 0 28 28 NNW 12 19 30.12 1020 10 16.0934 N/A
1:36 pm 13:36 Sunny 66 19 30 -1 26 26 NNW 10 17 30.12 1020 10 16.0934 N/A
1:56 pm 13:56 Sunny 68 20 30 -1 24 24 NNW 9 15 30.12 1020 10 16.0934 N/A
2:16 pm 14:16 Sunny 68 20 30 -1 24 24 NW 9 15 30.12 1020 10 16.0934 N/A
2:36 pm 14:36 Sunny 70 21 30 -1 23 23 N 9 15 30.12 1020 10 16.0934 N/A
2:56 pm 14:56 Sunny 70 21 28 -2 21 21 N 8 13 30.12 1020 10 16.0934 N/A
3:15 pm 15:15 Sunny 70 21 28 -2 21 21 N 8 13 30.09 1019 10 16.0934 N/A
3:36 pm 15:36 Sunny 70 21 28 -2 21 21 NW 8 13 30.09 1019 10 16.0934 N/A
3:56 pm 15:56 Partly Cloudy 70 21 27 -3 20 20 NW 6 9 30.09 1019 10 16.0934 N/A
4:15 pm 16:15 Partly Cloudy 72 22 28 -2 20 20 NNW 9 15 30.06 1018 10 16.0934 N/A
4:36 pm 16:36 Sunny 70 21 27 -3 20 20 N 7 11 30.09 1019 10 16.0934 N/A
4:56 pm 16:56 Sunny 70 21 28 -2 21 21 N 6 9 30.06 1018 10 16.0934 N/A
5:16 pm 17:16 Sunny 70 21 25 -4 18 18 N 8 13 30.06 1018 10 16.0934 N/A
5:36 pm 17:36 Sunny 72 22 25 -4 17 17 N 6 9 30.03 1017 10 16.0934 N/A
5:56 pm 17:56 Sunny 70 21 27 -3 20 20 NW 6 9 30.06 1018 10 16.0934 N/A
6:16 pm 18:16 Sunny 68 20 28 -2 23 23 NW 6 9 30.06 1018 10 16.0934 N/A
6:36 pm 18:36 Sunny 66 19 32 0 28 28 NW 5 7 30.09 1019 10 16.0934 N/A
6:56 pm 18:56 Sunny 68 20 28 -2 23 23 NW 6 9 30.09 1019 10 16.0934 N/A
7:16 pm 19:16 Sunny 68 20 28 -2 23 23 NNW 5 7 30.06 1018 10 16.0934 N/A
7:36 pm 19:36 Sunny 66 19 32 0 28 28 NW 8 13 30.06 1018 10 16.0934 N/A
7:56 pm 19:56 Sunny 63 17 32 0 32 32 NW 5 7 30.06 1018 10 16.0934 N/A
8:16 pm 20:16 Sunny 63 17 30 -1 30 30 NW 5 7 30.06 1018 10 16.0934 N/A
8:36 pm 20:36 Sunny 63 17 28 -2 27 27 NW 3 6 30.06 1018 10 16.0934 N/A
8:56 pm 20:56 Clear 61 16 32 0 34 34 NW 5 7 30.09 1019 10 16.0934 N/A
9:16 pm 21:16 Clear 61 16 30 -1 31 31 NW 5 7 30.09 1019 10 16.0934 N/A
9:36 pm 21:36 Clear 61 16 30 -1 31 31 NW 5 7 30.09 1019 10 16.0934 N/A
9:56 pm 21:56 Clear 55 13 36 2 47 47 WNW 5 7 30.09 1019 10 16.0934 N/A
10:16 pm 22:16 Clear 55 13 36 2 47 47 W 3 6 30.09 1019 10 16.0934 N/A
10:36 pm 22:36 Clear 55 13 36 2 47 47 Calm 30.09 1019 10 16.0934 N/A
10:56 pm 22:56 Clear 55 13 37 3 51 51 Calm 30.09 1019 10 16.0934 N/A
11:16 pm 23:16 Clear 55 13 36 2 47 47 W 3 6 30.09 1019 10 16.0934 N/A
11:36 pm 23:36 Clear 55 13 36 2 47 47 Calm 30.09 1019 10 16.0934 N/A
11:56 pm 23:56 Clear 54 12 36 2 51 51 W 3 6 30.12 1020 10 16.0934 N/A

Powered by AerisWeather